Location: Shannon
(40.5500°S, 175.4167°E)
Time: 11:36:48
(UTC+00:00)

Resurs 1-4 Rocket - Pass Details

Date: 17 November 2025
Orbit: 799 x 811 km, 98.8° (Epoch: 09 December)

Event Time Altitude Azimuth Distance (km) Brightness Sun altitude
Exits shadow 13:57:11 60° 13° (NNE) 929 2.1 -24.7°
Maximum altitude 13:58:12 89° 291° (WNW) 824 2.0 -24.6°
Drops below altitude 10° 14:03:35 10° 194° (SSW) 2,422 5.1 -24.1°
Sets 14:05:56 0° 193° (SSW) 3,358 6.0 -23.9°
